STARLINK-3790, 52274

Orbit data source: Space-Track

STARLINK-3790, 52274 is a payload satellite owned by SpaceX/Seattle (US) in LEO that was launched on Thu, 21 Apr 2022 UTC via an FALCON 9 launch vehicle from the Air Force Eastern Test Range (AFETR). Payload-class satellites include a variety of spacecraft equipped with specific instruments for various scientific and technological missions. These include communications satellites like Starlink; space stations such as the ISS; scientific satellites like the Hubble; Earth observation satellites from companies like Planet Labs, Umbra, and HawkEye 360; GPS; miniature CubeSats for education and research; and military/defense satellites.

Loading next visibility...
Identifier
52274, 2022-041P
Orbit
LEO
Country
Flag of USUS
Related business
Manufacturer
SpaceX/Seattle
Mission
Operational Commercial Communications
Bus & Motor
STARLINK, Unknown motor
Mass
297 kg wet, ~275 kg dry
Launch date (UTC)
2022-04-21 (4 years ago)
Launch vehicle
FALCON 9
Launch site
Air Force Eastern Test Range (AFETR)
Object type
Payload
Rocket body
Debris
Shape & HBR
Box + 1 Pan, 10.1 m
Radar Cross Section
11.087 m², Large (>1 m²)

Expand to show TLE details & history
Last TLE update: 6 hours ago

TLE from 6 hours ago
0 STARLINK-3790
1 52274U 22041P   26130.21215659 -.00000123  00000-0  10350-4 0  9992
2 52274  53.2162 192.9334 0001127  84.7530 275.3590 15.08832879223650
Epoch: 2026-05-10T05:05Z
TLE epoch observation values (Epoch: 2026-05-10T05:05:30.329Z)
Latitude
-0.00008°
Longitude
-111.46151°
Altitude
540.59 km
Speed
7.593 km/s
True Right ascension
12h 51m 44s
True Declination
0° 00' 00"
Sunlit
Object was in full shadow at epoch
Visualization orbit readout
Latitude
Unknown
Longitude
Unknown
Altitude
Unknown
Speed
Unknown
Apparent Right ascension
Unknown
Apparent Declination
Unknown
Sunlit
N/A
Visualization observer readout
Local Sidereal Time
19:47:34
Azimuth
Unknown
Elevation
Unknown
Doppler factor
Unknown
Orbital elements
Apogee altitude
540.79 km
Perigee altitude
539.231 km
Semi-major axis
6,918.147 km
Eccentricity
0.00011
Inclination
53.2162°
RAAN
192.9334°
Arg. of periapsis
84.753°
True anomaly
275.34614°
Mean anomaly
275.359°
Eccentric anomaly
275.35257°
Mean motion
3.77189 °/min
Orbital period
95.44 mins
BSTAR
0.00001035
Loading maneuver chart data...
Computing Atmospheric mass density...
Loading historical data...
Loading historical data...
Loading historical data...
Loading historical data...
Loading historical data...
Loading historical data...
Loading historical data...

Documentation

Showing up to 5 results
|